Location: Aragoneses
(41.0275°N, 4.3847°W)
Time: 04:46:33
(UTC+00:00)

ISS - Pass Details

Date: 19 February 2026
Orbit: 415 x 426 km, 51.6° (Epoch: 11 March)

Event Time Altitude Azimuth Distance (km) Brightness Sun altitude
Exits shadow 06:15:58 11° 311° (NW) 1,445 -1.5 -10.2°
Maximum altitude 06:17:55 16° 348° (NNW) 1,191 -1.6 -9.9°
Drops below altitude 10° 06:20:04 10° 28° (NNE) 1,494 -0.7 -9.5°
Sets 06:22:46 0° 52° (NE) 2,357 0.8 -9.0°
